Location: lozzo di cadore
(46.4899°N, 12.4508°E)
Time: 13:03:30
(UTC+02:00)

Envisat - Pass Details

Date: 08 May 2025
Orbit: 761 x 763 km, 98.3° (Epoch: 14 May)

Event Time Altitude Azimuth Distance (km) Brightness Sun altitude
Rises 04:03:32 0° 15° (NNE) 3,234 7.4 -15.0°
Reaches altitude 10° 04:05:52 10° 17° (NNE) 2,304 6.5 -14.7°
Maximum altitude 04:10:56 76° 103° (ESE) 789 3.1 -14.1°
Enters shadow 04:15:33 13° 189° (S) 2,117 4.8 -13.5°
